Location: *
(55.6049°S, 142.1985°W)
Time: 23:45:28
(UTC+00:00)

Meteor 2-3 Rocket - Pass Details

Date: 12 May 2021
Orbit: 841 x 886 km, 81.2° (Epoch: 18 June)

Event Time Altitude Azimuth Distance (km) Brightness Sun altitude
Rises 14:46:29 0° 194° (SSW) 3,495 6.7 -20.4°
Reaches altitude 10° 14:49:00 10° 189° (S) 2,558 6.1 -20.1°
Maximum altitude 14:54:44 56° 111° (ESE) 1,054 4.5 -19.3°
Drops below altitude 10° 15:00:28 10° 32° (NNE) 2,558 6.7 -18.5°
Sets 15:02:58 0° 28° (NNE) 3,493 7.4 -18.1°
